Location: Aalen
(48.8330°N, 10.1000°E)
Time: 20:17:43
(UTC+02:00)

UNISAT 6 - Pass Details

Date: 02 April 2023
Orbit: 599 x 680 km, 97.7° (Epoch: 04 June)

Event Time Altitude Azimuth Distance (km) Brightness Sun altitude
Rises 05:59:58 0° 167° (SSE) 2,920 ? -9.8°
Reaches altitude 10° 06:02:07 10° 167° (SSE) 2,029 ? -9.5°
Maximum altitude 06:06:34 84° 256° (WSW) 663 ? -8.8°
Drops below altitude 10° 06:11:09 10° 346° (NNW) 2,096 ? -8.1°
Sets 06:13:25 0° 347° (NNW) 3,024 ? -7.7°
